Weather History for KGDV - November, 2012

Change the Weather History Date:

Saturday, November 24, 2012

  Actual Average (KMLS) Record (KMLS)
Temperature  
Mean Temperature 34 °F 28 °F  
Max Temperature 44 °F 38 °F 63 °F (1986)
Min Temperature 24 °F 17 °F -18 °F (1993)
Degree Days  
Heating Degree Days 31 37  
Month to date heating degree days 752  
Since 1 July heating degree days 1563  
Cooling Degree Days 0 0  
Month to date cooling degree days 0  
Year to date cooling degree days 730  
Moisture  
Dew Point 27 °F    
Average Humidity 79    
Maximum Humidity 93    
Minimum Humidity 65    
Precipitation  
Precipitation 0.00 in 0.01 in 0.22 in ()
Month to date precipitation 0.34  
Year to date precipitation 12.10  
Sea Level Pressure  
Sea Level Pressure 29.90 in    
Wind  
Wind Speed 9 mph (West)    
Max Wind Speed 18 mph    
Max Gust Speed 25 mph    
Visibility 10 miles    
Events      
T = Trace of Precipitation, MM = Missing Value Source: NWS Daily Summary

Daily Weather History Graph

Daily Weather History Graph

Search for Another Location

Airport or City:

Trip Planner

Search our weather history database for the weather conditions in past years. The results will help you decide how hot, cold, wet, or windy it might be!

Date:

Astronomy

Nov. 24, 2012 Rise Set
Actual Time 7:16 AM MST 4:15 PM MST
Civil Twilight 6:42 AM MST 4:49 PM MST
Nautical Twilight 6:04 AM MST 5:27 PM MST
Astronomical Twilight 5:27 AM MST 6:03 PM MST
Moon 2:11 PM MST (11/24) 3:24 AM MST (11/24)
Length of Visible Light 10h 07m
Length of Day
8h 58m
Waxing Gibbous, 87% of the Moon is Illuminated
Nov 24
Waxing Gibbous
Nov 28
Full
Dec 6
Last Quarter
Dec 13
New
Dec 19
First Quarter

Hourly Weather History & Observations

Time (MST) Temp. Windchill Dew Point Humidity Pressure Visibility Wind Dir Wind Speed Gust Speed Precip Events Conditions
12:15 AM 28.4 °F 20.4 °F 21.2 °F 74% 29.95 in 10.0 mi South 8.1 mph - N/A   Clear
12:35 AM 28.4 °F 19.7 °F 21.2 °F 74% 29.93 in 10.0 mi South 9.2 mph - N/A   Clear
12:55 AM 28.4 °F 19.7 °F 21.2 °F 74% 29.92 in 10.0 mi South 9.2 mph - N/A   Clear
1:15 AM 28.4 °F 18.5 °F 21.2 °F 74% 29.91 in 10.0 mi South 11.5 mph - N/A   Clear
1:35 AM 30.2 °F 20.2 °F 23.0 °F 75% 29.90 in 10.0 mi South 12.7 mph - N/A   Clear
1:55 AM 28.4 °F 19.7 °F 21.2 °F 74% 29.89 in 10.0 mi South 9.2 mph - N/A   Clear
2:15 AM 28.4 °F 18.5 °F 21.2 °F 74% 29.88 in 10.0 mi South 11.5 mph - N/A   Clear
2:35 AM 28.4 °F 20.4 °F 21.2 °F 74% 29.87 in 10.0 mi South 8.1 mph - N/A   Clear
2:55 AM 28.4 °F 19.1 °F 23.0 °F 80% 29.87 in 10.0 mi South 10.4 mph - N/A   Clear
3:15 AM 26.6 °F 20.0 °F 21.2 °F 80% 29.86 in 10.0 mi SSE 5.8 mph - N/A   Clear
3:35 AM 24.8 °F 19.1 °F 19.4 °F 80% 29.85 in 10.0 mi South 4.6 mph - N/A   Clear
3:55 AM 24.8 °F 17.9 °F 19.4 °F 80% 29.84 in 10.0 mi South 5.8 mph - N/A   Clear
4:15 AM 24.8 °F - 21.2 °F 86% 29.84 in 10.0 mi Calm Calm - N/A   Clear
4:35 AM 24.8 °F 20.5 °F 21.2 °F 86% 29.84 in 10.0 mi South 3.5 mph - N/A   Clear
4:55 AM 24.8 °F 19.1 °F 23.0 °F 93% 29.84 in 10.0 mi SSW 4.6 mph - N/A   Clear
5:15 AM 26.6 °F 21.2 °F 21.2 °F 80% 29.84 in 10.0 mi South 4.6 mph - N/A   Clear
5:35 AM 26.6 °F 18.2 °F 21.2 °F 80% 29.83 in 10.0 mi South 8.1 mph - N/A   Scattered Clouds
5:55 AM 26.6 °F 22.6 °F 21.2 °F 80% 29.84 in 10.0 mi SSW 3.5 mph - N/A   Mostly Cloudy
6:15 AM 28.4 °F - 23.0 °F 80% 29.84 in 10.0 mi Calm Calm - N/A   Overcast
6:35 AM 28.4 °F 22.2 °F 24.8 °F 86% 29.85 in 10.0 mi SSE 5.8 mph - N/A   Overcast
6:55 AM 28.4 °F - 23.0 °F 80% 29.85 in 10.0 mi Calm Calm - N/A   Overcast
7:15 AM 33.8 °F 28.6 °F 28.4 °F 81% 29.85 in 10.0 mi NNW 5.8 mph - N/A   Mostly Cloudy
7:35 AM 33.8 °F 28.6 °F 28.4 °F 81% 29.85 in 10.0 mi WSW 5.8 mph - N/A   Mostly Cloudy
7:55 AM 30.2 °F 22.6 °F 24.8 °F 80% 29.84 in 10.0 mi SSE 8.1 mph - N/A   Mostly Cloudy
8:15 AM 33.8 °F 29.6 °F 28.4 °F 81% 29.85 in 10.0 mi South 4.6 mph - N/A   Scattered Clouds
8:35 AM 33.8 °F 28.6 °F 28.4 °F 81% 29.85 in 10.0 mi South 5.8 mph - N/A   Clear
8:55 AM 35.6 °F 31.7 °F 32.0 °F 87% 29.85 in 10.0 mi South 4.6 mph - N/A   Clear
9:15 AM 33.8 °F 28.6 °F 28.4 °F 81% 29.86 in 10.0 mi South 5.8 mph - N/A   Clear
9:35 AM 33.8 °F 28.6 °F 30.2 °F 87% 29.85 in 10.0 mi South 5.8 mph - N/A   Clear
9:55 AM 37.4 °F 32.1 °F 32.0 °F 81% 29.86 in 10.0 mi SW 6.9 mph - N/A   Clear
10:15 AM 37.4 °F 32.8 °F 30.2 °F 75% 29.86 in 10.0 mi SW 5.8 mph - N/A   Partly Cloudy
10:35 AM 42.8 °F 37.5 °F 37.4 °F 81% 29.86 in 10.0 mi West 9.2 mph - N/A   Partly Cloudy
11:15 AM 44.6 °F 38.4 °F 35.6 °F 71% 29.85 in 10.0 mi WNW 12.7 mph 18.4 mph N/A   Scattered Clouds
11:35 AM 44.6 °F 36.9 °F 33.8 °F 66% 29.85 in 10.0 mi WNW 18.4 mph - N/A   Partly Cloudy
11:55 AM 44.6 °F 37.2 °F 33.8 °F 66% 29.85 in 10.0 mi NW 17.3 mph 25.3 mph N/A   Clear
12:15 PM 42.8 °F 35.4 °F 33.8 °F 70% 29.86 in 10.0 mi NW 15.0 mph - N/A   Scattered Clouds
12:35 PM 42.8 °F 35.8 °F 33.8 °F 70% 29.85 in 10.0 mi WNW 13.8 mph - N/A   Partly Cloudy
12:55 PM 42.8 °F 35.8 °F 33.8 °F 70% 29.85 in 10.0 mi WNW 13.8 mph - N/A   Scattered Clouds
1:15 PM 42.8 °F 36.2 °F 33.8 °F 70% 29.84 in 10.0 mi NW 12.7 mph - N/A   Mostly Cloudy
1:35 PM 42.8 °F 37.0 °F 33.8 °F 70% 29.86 in 10.0 mi WNW 10.4 mph - N/A   Mostly Cloudy
1:55 PM 41.0 °F 33.9 °F 32.0 °F 70% 29.87 in 10.0 mi NW 12.7 mph - N/A   Overcast
2:15 PM 39.2 °F 32.0 °F 30.2 °F 70% 29.88 in 10.0 mi NW 11.5 mph - N/A   Mostly Cloudy
2:35 PM 39.2 °F 32.5 °F 30.2 °F 70% 29.88 in 10.0 mi NW 10.4 mph - N/A   Scattered Clouds
2:55 PM 39.2 °F 32.0 °F 30.2 °F 70% 29.90 in 10.0 mi NNW 11.5 mph 18.4 mph N/A   Partly Cloudy
3:15 PM 41.0 °F 34.3 °F 30.2 °F 65% 29.91 in 10.0 mi NNW 11.5 mph - N/A   Mostly Cloudy
3:35 PM 39.2 °F 30.8 °F 28.4 °F 65% 29.91 in 10.0 mi North 15.0 mph 18.4 mph N/A   Scattered Clouds
3:55 PM 37.4 °F 29.8 °F 28.4 °F 70% 29.92 in 10.0 mi North 11.5 mph - N/A   Mostly Cloudy
4:15 PM 37.4 °F 30.8 °F 28.4 °F 70% 29.94 in 10.0 mi NNW 9.2 mph - N/A   Overcast
4:35 PM 35.6 °F 31.7 °F 28.4 °F 75% 29.93 in 10.0 mi NW 4.6 mph - N/A   Overcast
4:55 PM 35.6 °F 30.7 °F 28.4 °F 75% 29.94 in 10.0 mi NW 5.8 mph - N/A   Overcast
5:15 PM 33.8 °F 27.7 °F 26.6 °F 75% 29.94 in 10.0 mi WNW 6.9 mph - N/A   Overcast
5:35 PM 33.8 °F 27.7 °F 26.6 °F 75% 29.96 in 10.0 mi WNW 6.9 mph - N/A   Scattered Clouds
5:55 PM 33.8 °F 27.7 °F 26.6 °F 75% 29.98 in 10.0 mi WNW 6.9 mph - N/A   Mostly Cloudy
6:15 PM 33.8 °F 27.0 °F 28.4 °F 81% 29.97 in 10.0 mi West 8.1 mph - N/A   Mostly Cloudy
6:35 PM 33.8 °F 27.0 °F 28.4 °F 81% 29.97 in 10.0 mi NW 8.1 mph - N/A   Partly Cloudy
6:55 PM 32.0 °F 24.2 °F 26.6 °F 80% 29.97 in 10.0 mi NW 9.2 mph - N/A   Clear
7:15 PM 30.2 °F 22.6 °F 26.6 °F 86% 29.98 in 10.0 mi WNW 8.1 mph - N/A   Clear
7:35 PM 28.4 °F 19.1 °F 26.6 °F 93% 29.98 in 10.0 mi WNW 10.4 mph - N/A   Clear
7:55 PM 28.4 °F 19.1 °F 26.6 °F 93% 29.98 in 10.0 mi WNW 10.4 mph - N/A   Scattered Clouds
8:15 PM 28.4 °F 18.5 °F 24.8 °F 86% 29.99 in 10.0 mi WNW 11.5 mph - N/A   Scattered Clouds
8:35 PM 28.4 °F 21.2 °F 24.8 °F 86% 29.99 in 10.0 mi NW 6.9 mph - N/A   Partly Cloudy
8:55 PM 26.6 °F 16.8 °F 24.8 °F 93% 29.99 in 10.0 mi WNW 10.4 mph - N/A   Clear
9:35 PM 28.4 °F 18.0 °F 24.8 °F 86% 29.98 in 10.0 mi NW 12.7 mph - N/A   Mostly Cloudy
9:55 PM 28.4 °F 18.0 °F 24.8 °F 86% 29.97 in 10.0 mi NNW 12.7 mph - N/A   Overcast
10:15 PM 26.6 °F 14.3 °F 24.8 °F 93% 29.95 in 10.0 mi NNW 16.1 mph - N/A   Overcast
10:35 PM 26.6 °F 17.5 °F 23.0 °F 86% 29.99 in 10.0 mi West 9.2 mph - N/A   Overcast
10:55 PM 28.4 °F 18.0 °F 24.8 °F 86% 30.00 in 10.0 mi WNW 12.7 mph 17.3 mph N/A   Overcast
11:15 PM 26.6 °F 16.8 °F 23.0 °F 86% 30.00 in 10.0 mi WNW 10.4 mph - N/A   Overcast
11:35 PM 26.6 °F 17.5 °F 21.2 °F 80% 29.99 in 10.0 mi WNW 9.2 mph - N/A   Partly Cloudy
11:55 PM 26.6 °F 16.2 °F 23.0 °F 86% 29.99 in 10.0 mi WNW 11.5 mph - N/A   Clear